[[{"header":{"parameterUnit":"m.s-1","parameterCategory":1,"la1":30.2991,"la2":30.254,"lo1":-89.0895,"lo2":-89.0444,"dy":0.0017,"dx":0.0017,"nx":28,"ny":28,"refTime":"2024-08-04T09:00:00:Z","depth":0,"parameterNumber":2,"parameterNumberName":"U-component_of_WINDS"},"data":[0,0,0,0,0,0,0,0,0,0,0,0,0,0,0,0,0,0,0,0,0,0,0,0,0,0,0,0,0,0,0,0,0,0,0,0,0,0,0,0,0,0,0,0,0,0,0,0,0,0,0,0,0,0,0,0,0,0,-2.4727,-2.4727,0,-2.4725,-2.4725,-2.4725,-2.4671,-2.467,-2.4668,-2.4667,-2.4667,-2.4669,-2.467,0,0,0,0,0,0,0,0,0,0,0,0,0,-2.4686,-2.4687,-2.4727,-2.4727,-2.4727,-2.4725,-2.4725,-2.4725,-2.4671,-2.467,-2.4668,-2.4666,-2.4667,-2.4669,-2.467,0,0,0,0,0,0,0,0,0,0,0,0,0,-2.4696,-2.4687,-2.4727,-2.47,-2.4697,-2.4725,-2.4725,-2.4725,-2.4672,-2.467,-2.4668,-2.4666,-2.4667,-2.4668,-2.467,-2.4725,0,0,-2.4676,-2.4677,0,0,0,0,0,0,0,0,-2.4696,-2.4698,-2.4704,-2.4702,-2.4699,-2.4696,-2.4711,-2.4725,-2.4672,-2.4682,-2.4667,-2.4665,-2.4679,-2.468,-2.4684,-2.4725,-2.4725,-2.4677,-2.4678,-2.4679,-2.4679,0,0,0,0,0,0,0,-2.4695,-2.4697,-2.4726,-2.4704,-2.4701,-2.4688,-2.4688,-2.4713,-2.4692,-2.4681,-2.4677,-2.4677,-2.4677,-2.4682,-2.4684,-2.4725,-2.4677,-2.4678,-2.468,-2.468,-2.4812,-2.4814,0,0,0,0,0,0,-2.4698,-2.4697,-2.4726,-2.4726,-2.4692,-2.4691,-2.469,-2.4699,-2.4692,-2.4689,-2.4679,-2.4675,-2.468,-2.4681,-2.4684,-2.4748,-2.4679,-2.4681,-2.4682,-2.481,-2.4812,-2.4815,0,0,0,0,0,0,-2.4697,-2.4701,-2.4727,-2.4711,-2.4713,-2.4694,-2.4705,-2.47,-2.4705,-2.469,-2.4687,-2.4688,-2.4678,-2.4681,-2.4715,-2.4747,-2.4681,-2.4683,-2.4807,-2.481,-2.4814,-2.4877,0,0,0,0,0,0,-2.4696,-2.4701,-2.4721,-2.4712,-2.4714,-2.4758,-2.4707,-2.4702,-2.4709,-2.4703,-2.4698,-2.4695,-2.4677,-2.4713,-2.4717,-2.4749,-2.4685,-2.4804,-2.4808,-2.4812,-2.4872,-2.4882,-2.4891,0,0,0,0,0,-2.4695,-2.4739,-2.4722,-2.4726,-2.4739,-2.476,-2.4761,-2.4739,-2.4712,-2.4732,-2.4722,-2.4695,-2.4743,-2.4716,-2.4721,-2.4754,-2.4802,-2.4807,-2.4812,-2.4868,-2.488,-2.4891,0,0,0,0,0,0,-2.4753,-2.4737,-2.4718,-2.4761,-2.4762,-2.475,-2.4776,-2.4753,-2.4762,-2.4757,-2.4729,-2.4728,-2.4767,-2.4764,-2.4735,-2.4807,-2.4768,-2.4774,-2.4808,-2.482,-2.4829,-2.483,-2.4686,0,0,0,0,0,-2.4771,-2.4789,-2.4774,-2.4813,-2.4814,-2.4795,-2.4803,-2.4786,-2.4786,-2.4787,-2.478,-2.4782,-2.4797,-2.4808,-2.4821,-2.4871,-2.487,-2.4896,-2.4905,-2.4913,-2.492,-2.4947,-2.4959,-2.4832,-2.4832,-2.4832,0,0,-2.4808,-2.4801,-2.4814,-2.4824,-2.4823,-2.4843,-2.4796,-2.4819,-2.4834,-2.479,-2.4823,-2.4818,-2.4818,-2.4861,-2.4879,-2.4859,-2.4954,-2.492,-2.4926,-2.4928,-2.4954,-2.4966,-2.4976,-2.4835,-2.4835,-2.4834,0,0,-2.4886,-2.4882,-2.4915,-2.4915,-2.4913,-2.49,-2.4908,-2.49,-2.4895,-2.4927,-2.4895,-2.4913,-2.4939,-2.4942,-2.4946,-2.5025,-2.5002,-2.503,-2.5081,-2.5108,-2.5118,-2.5127,-2.5157,-2.5168,-2.5037,-2.5037,-2.5037,0,-2.4933,-2.4961,-2.4935,-2.496,-2.4966,-2.4927,-2.4961,-2.4962,-2.4965,-2.4971,-2.4948,-2.4981,-2.4979,-2.5022,-2.5041,-2.5046,-2.5055,-2.5032,-2.5118,-2.5127,-2.5135,-2.5163,-2.5175,-2.504,-2.504,-2.504,-2.5039,0,-2.5019,-2.5039,-2.5066,-2.507,-2.5079,-2.5108,-2.5087,-2.5099,-2.5081,-2.5071,-2.5104,-2.51,-2.5112,-2.5121,-2.5103,-2.5162,-2.515,-2.5123,-2.5083,-2.5151,-2.5178,-2.5188,-2.5046,-2.5044,-2.5043,-2.5042,0,0,-2.5135,-2.5124,-2.5135,-2.5136,-2.5132,-2.5148,-2.5175,-2.5187,-2.5199,-2.5202,-2.5226,-2.525,-2.5225,-2.523,-2.5213,-2.5236,-2.5302,-2.5207,-2.5206,-2.5226,-2.5369,-2.539,-2.5403,-2.5285,-2.5287,-2.5288,-2.5369,0,-2.5212,-2.5259,-2.5236,-2.5286,-2.5305,-2.5268,-2.5293,-2.5294,-2.5285,-2.53,-2.529,-2.5308,-2.5273,-2.5277,-2.5298,-2.5289,-2.533,-2.5283,-2.5309,-2.531,-2.5312,-2.5416,-2.5439,-2.5516,-2.5379,-2.5381,-2.5382,0,-2.5309,-2.5316,-2.5368,-2.5361,-2.5368,-2.539,-2.54,-2.5414,-2.5415,-2.5407,-2.5413,-2.539,-2.5418,-2.5377,-2.5416,-2.5385,-2.5394,-2.5391,-2.5393,-2.5397,-2.5352,-2.5425,-2.5539,-2.5552,-2.5398,-2.5396,-2.5395,0,-2.5391,-2.5413,-2.5448,-2.545,-2.5442,-2.5459,-2.5457,-2.5455,-2.5463,-2.5472,-2.5477,-2.5489,-2.5496,-2.5506,-2.5487,-2.5458,-2.553,-2.5486,-2.5525,-2.5526,-2.5543,-2.5543,-2.5663,-2.5546,-2.5546,-2.5546,-2.5545,0,-2.548,-2.5514,-2.5484,-2.5506,-2.5543,-2.5516,-2.5554,-2.5548,-2.5546,-2.5567,-2.5535,-2.5555,-2.5528,-2.5546,-2.5531,-2.5567,-2.557,-2.5565,-2.5561,-2.5569,-2.557,-2.5576,-2.5571,-2.5549,-2.5548,-2.5547,-2.5547,0,-2.5579,-2.556,-2.5595,-2.5585,-2.5583,-2.5611,-2.5602,-2.5622,-2.5611,-2.5637,-2.5642,-2.5624,-2.5643,-2.5625,-2.5643,-2.5634,-2.5682,-2.567,-2.5682,-2.568,-2.572,-2.5718,-2.585,-2.5867,-2.5737,-2.5739,-2.574,0,-2.5638,-2.5663,-2.5655,-2.5666,-2.5666,-2.5684,-2.5692,-2.5667,-2.5678,-2.568,-2.5701,-2.5717,-2.5729,-2.5761,-2.5751,-2.5765,-2.5754,-2.58,-2.5756,-2.5764,-2.5757,-2.5757,-2.576,-2.5809,-2.5811,-2.5812,-2.5813,0,-2.5746,-2.5736,-2.5749,-2.5759,-2.5771,-2.5778,-2.5782,-2.5793,-2.5768,-2.5781,-2.58,-2.581,-2.5828,-2.5846,-2.5856,-2.5855,-2.5831,-2.5826,-2.5837,-2.5846,-2.5853,-2.5852,-2.5709,-2.5824,-2.5823,-2.5822,-2.5822,-2.5821,-2.5828,-2.5849,-2.5847,-2.5863,-2.5864,-2.587,-2.5888,-2.5879,-2.5894,-2.5907,-2.5891,-2.5915,-2.5915,-2.5927,-2.5929,-2.5948,-2.5929,-2.5943,-2.5947,-2.5952,-2.5959,-2.5848,-2.595,-2.5949,-2.5949,-2.5949,-2.5949,0,-2.5936,-2.5933,-2.5948,-2.5956,-2.5969,-2.5943,-2.5947,-2.596,-2.5982,-2.5983,-2.5996,-2.6018,-2.6035,-2.6026,-2.6041,-2.6058,-2.6047,-2.6063,-2.6063,-2.6063,-2.5974,-2.5964,-2.6071,-2.6071,-2.6071,-2.6071,-2.6071,-2.6071,-2.5994,-2.6029,-2.6019,-2.6054,-2.605,-2.6073,-2.6078,-2.6083,-2.6085,-2.6111,-2.6125,-2.6118,-2.6116,-2.6131,-2.6146,-2.6142,-2.615,-2.6171,-2.6164,-2.6081,-2.6069,-2.6058,-2.6049,-2.6172,-2.6172,-2.6252,-2.6253,-2.6253]},{"header":{"parameterUnit":"m.s-1","parameterCategory":1,"la1":30.2991,"la2":30.254,"lo1":-89.0895,"lo2":-89.0444,"dy":0.0017,"dx":0.0017,"nx":28,"ny":28,"refTime":"2024-08-04T09:00:00:Z","depth":0,"parameterNumber":3,"parameterNumberName":"V-component_of_WINDS"},"data":[0,0,0,0,0,0,0,0,0,0,0,0,0,0,0,0,0,0,0,0,0,0,0,0,0,0,0,0,0,0,0,0,0,0,0,0,0,0,0,0,0,0,0,0,0,0,0,0,0,0,0,0,0,0,0,0,0,0,-2.6057,-2.6057,0,-2.6051,-2.6051,-2.6051,-2.6007,-2.6006,-2.6005,-2.6004,-2.5998,-2.5998,-2.5999,0,0,0,0,0,0,0,0,0,0,0,0,0,-2.6031,-2.6032,-2.6057,-2.6057,-2.6057,-2.6051,-2.6051,-2.6051,-2.6008,-2.6006,-2.6005,-2.6004,-2.5997,-2.5998,-2.5999,0,0,0,0,0,0,0,0,0,0,0,0,0,-2.6036,-2.6032,-2.6057,-2.6035,-2.6033,-2.6051,-2.6051,-2.6051,-2.6008,-2.6006,-2.6005,-2.6003,-2.5997,-2.5998,-2.5999,-2.6039,0,0,-2.6003,-2.6004,0,0,0,0,0,0,0,0,-2.6035,-2.6037,-2.6038,-2.6036,-2.6034,-2.6028,-2.6039,-2.6047,-2.6008,-2.6017,-2.6004,-2.6002,-2.6009,-2.6009,-2.6012,-2.6039,-2.6039,-2.6003,-2.6004,-2.6005,-2.6005,0,0,0,0,0,0,0,-2.6035,-2.6037,-2.6055,-2.6038,-2.6036,-2.6025,-2.6024,-2.6041,-2.6022,-2.6016,-2.6013,-2.6013,-2.6008,-2.6011,-2.6011,-2.6039,-2.6003,-2.6004,-2.6005,-2.6006,-2.6099,-2.6101,0,0,0,0,0,0,-2.6038,-2.6037,-2.6055,-2.6055,-2.6031,-2.6027,-2.6025,-2.6032,-2.6022,-2.6019,-2.6014,-2.6011,-2.6009,-2.601,-2.6011,-2.6058,-2.6005,-2.6006,-2.6006,-2.6098,-2.61,-2.6102,0,0,0,0,0,0,-2.6038,-2.604,-2.6055,-2.6045,-2.6046,-2.6029,-2.6037,-2.6033,-2.6036,-2.6021,-2.6017,-2.6021,-2.6008,-2.6009,-2.6033,-2.6057,-2.6006,-2.6007,-2.6096,-2.6098,-2.6101,-2.6153,0,0,0,0,0,0,-2.6037,-2.604,-2.6055,-2.6046,-2.6047,-2.6078,-2.6038,-2.6034,-2.6038,-2.6033,-2.6026,-2.6023,-2.6007,-2.6031,-2.6034,-2.6058,-2.6008,-2.6093,-2.6097,-2.61,-2.6149,-2.6157,-2.6163,0,0,0,0,0,-2.6036,-2.607,-2.6056,-2.6059,-2.6065,-2.6079,-2.608,-2.6061,-2.604,-2.6055,-2.6045,-2.6023,-2.6054,-2.6034,-2.6037,-2.6062,-2.6092,-2.6096,-2.61,-2.6145,-2.6155,-2.6163,0,0,0,0,0,0,-2.6082,-2.6068,-2.6053,-2.6084,-2.6083,-2.6072,-2.609,-2.6072,-2.6077,-2.6073,-2.6048,-2.6047,-2.6075,-2.607,-2.6048,-2.61,-2.6069,-2.6074,-2.6103,-2.6112,-2.6119,-2.612,-2.6009,0,0,0,0,0,-2.6096,-2.6109,-2.6095,-2.6124,-2.6125,-2.6108,-2.6113,-2.6099,-2.6097,-2.6096,-2.6088,-2.6087,-2.6097,-2.6104,-2.6111,-2.6147,-2.6145,-2.6165,-2.6173,-2.6179,-2.6184,-2.6204,-2.6213,-2.6115,-2.6115,-2.6115,0,0,-2.6125,-2.6118,-2.6128,-2.6133,-2.6131,-2.6145,-2.6108,-2.6124,-2.6134,-2.6099,-2.6121,-2.6115,-2.6113,-2.6143,-2.6156,-2.614,-2.6211,-2.6184,-2.6189,-2.6191,-2.6209,-2.6218,-2.6227,-2.6117,-2.6117,-2.6116,0,0,-2.6185,-2.6181,-2.6205,-2.6204,-2.6201,-2.6189,-2.6195,-2.6187,-2.6182,-2.6204,-2.6178,-2.6189,-2.6206,-2.6206,-2.6208,-2.6268,-2.6248,-2.6271,-2.631,-2.633,-2.6338,-2.6345,-2.6368,-2.6376,-2.6275,-2.6275,-2.6275,0,-2.6221,-2.6241,-2.622,-2.6238,-2.6242,-2.621,-2.6235,-2.6235,-2.6234,-2.6238,-2.622,-2.6241,-2.6236,-2.6267,-2.6282,-2.6284,-2.629,-2.6272,-2.6338,-2.6345,-2.6351,-2.6373,-2.6381,-2.6278,-2.6278,-2.6278,-2.6277,0,-2.6286,-2.6301,-2.6321,-2.6323,-2.6328,-2.635,-2.6332,-2.634,-2.6325,-2.6315,-2.6339,-2.6333,-2.6339,-2.6345,-2.633,-2.6374,-2.6364,-2.6342,-2.6311,-2.6364,-2.6384,-2.6392,-2.6283,-2.6281,-2.6281,-2.628,0,0,-2.6376,-2.6366,-2.6374,-2.6375,-2.6369,-2.638,-2.64,-2.6407,-2.6415,-2.6416,-2.6433,-2.6448,-2.6428,-2.643,-2.6415,-2.6432,-2.6482,-2.6408,-2.6408,-2.6424,-2.6532,-2.655,-2.656,-2.6468,-2.647,-2.6471,-2.6533,0,-2.6435,-2.647,-2.6451,-2.6489,-2.6503,-2.6473,-2.649,-2.6489,-2.6481,-2.6491,-2.6481,-2.6493,-2.6465,-2.6467,-2.6482,-2.6473,-2.6504,-2.6468,-2.6485,-2.6486,-2.6489,-2.657,-2.6589,-2.6648,-2.654,-2.6542,-2.6543,0,-2.6509,-2.6514,-2.6553,-2.6546,-2.6551,-2.6568,-2.6573,-2.6583,-2.6581,-2.6574,-2.6577,-2.6557,-2.6577,-2.6545,-2.6572,-2.6548,-2.6553,-2.655,-2.6552,-2.6554,-2.6519,-2.6577,-2.6666,-2.6676,-2.6554,-2.6554,-2.6553,0,-2.6573,-2.6589,-2.6615,-2.6616,-2.6608,-2.6621,-2.6618,-2.6614,-2.662,-2.6624,-2.6628,-2.6634,-2.6638,-2.6644,-2.6627,-2.6604,-2.6657,-2.6623,-2.6653,-2.6653,-2.6667,-2.6666,-2.676,-2.6667,-2.6667,-2.6667,-2.6666,0,-2.6642,-2.6668,-2.6644,-2.666,-2.6688,-2.6666,-2.6694,-2.6688,-2.6685,-2.67,-2.6673,-2.6687,-2.6663,-2.6675,-2.6661,-2.6687,-2.6688,-2.6684,-2.668,-2.6687,-2.6688,-2.6692,-2.6689,-2.6669,-2.6668,-2.6668,-2.6668,0,-2.6719,-2.6704,-2.6731,-2.6721,-2.6719,-2.674,-2.6732,-2.6747,-2.6736,-2.6755,-2.6758,-2.6742,-2.6755,-2.6738,-2.6749,-2.674,-2.6775,-2.6765,-2.6777,-2.6774,-2.6806,-2.6804,-2.6907,-2.692,-2.6817,-2.6818,-2.6819,0,-2.6766,-2.6785,-2.6777,-2.6786,-2.6785,-2.6798,-2.6804,-2.6782,-2.679,-2.6789,-2.6804,-2.6815,-2.6822,-2.6844,-2.6833,-2.6841,-2.6832,-2.6867,-2.6833,-2.684,-2.6835,-2.6835,-2.6837,-2.6875,-2.6876,-2.6877,-2.6878,0,-2.685,-2.6842,-2.6851,-2.6859,-2.6867,-2.6871,-2.6874,-2.6882,-2.686,-2.6869,-2.6882,-2.6888,-2.6899,-2.6911,-2.6916,-2.6913,-2.6893,-2.6889,-2.6897,-2.6905,-2.6912,-2.6911,-2.6798,-2.6887,-2.6886,-2.6886,-2.6885,-2.6885,-2.6914,-2.693,-2.6928,-2.694,-2.694,-2.6943,-2.6957,-2.6949,-2.6959,-2.6967,-2.6954,-2.6971,-2.6969,-2.6974,-2.6973,-2.6986,-2.6971,-2.6982,-2.6985,-2.6988,-2.6994,-2.6908,-2.6987,-2.6987,-2.6986,-2.6986,-2.6986,0,-2.6999,-2.6996,-2.7007,-2.7012,-2.7022,-2.7001,-2.7003,-2.7013,-2.7028,-2.7028,-2.7036,-2.7051,-2.7062,-2.7052,-2.7061,-2.7074,-2.7065,-2.7077,-2.7077,-2.7077,-2.7006,-2.7,-2.7084,-2.7084,-2.7084,-2.7084,-2.7084,-2.7084,-2.7044,-2.7071,-2.7063,-2.7089,-2.7086,-2.7103,-2.7106,-2.7109,-2.7109,-2.7128,-2.7137,-2.713,-2.7126,-2.7135,-2.7144,-2.7141,-2.7146,-2.7163,-2.7156,-2.7091,-2.7082,-2.7072,-2.7066,-2.7163,-2.7164,-2.7226,-2.7227,-2.7227]}]]